Location: Unspecified
(0.0000°N, 0.0000°E)
Time: 08:39:54
(UTC+00:00)

Envisat - Pass Details

Date: 26 September 2018
Orbit: 764 x 766 km, 98.1° (Epoch: 18 August)

Event Time Altitude Azimuth Distance (km) Brightness Sun altitude
Rises 19:31:35 0° 170° (S) 3,227 6.2 -25.1°
Reaches altitude 10° 19:33:53 10° 170° (S) 2,299 5.4 -25.7°
Enters shadow 19:34:03 11° 170° (S) 2,232 5.3 -25.7°
Exits shadow 19:36:49 36° 173° (S) 1,198 3.9 -26.4°
Maximum altitude 19:38:57 83° 258° (WSW) 772 2.9 -26.9°
Drops below altitude 10° 19:44:01 10° 346° (NNW) 2,290 5.6 -28.2°
Sets 19:46:18 0° 347° (NNW) 3,213 6.4 -28.8°
